Location: Clyde
(45.1830°S, 169.3170°E)
Time: 10:49:18
(UTC+12:00)

Cosmos 1842 Rocket - Pass Details

Date: 14 May 2021
Orbit: 604 x 635 km, 82.5° (Epoch: 15 June)

Event Time Altitude Azimuth Distance (km) Brightness Sun altitude
Rises 18:06:41 0° 182° (S) 2,934 6.9 -7.7°
Reaches altitude 10° 18:09:03 10° 174° (S) 2,025 6.0 -8.1°
Maximum altitude 18:13:16 39° 104° (ESE) 955 4.0 -8.8°
Drops below altitude 10° 18:17:29 10° 35° (NE) 2,015 6.0 -9.5°
Sets 18:19:50 0° 27° (NNE) 2,918 6.9 -9.9°
